Search for airport 
image banner adimage banner adimage banner ad
image banner ad

NV99 - Maverick Heliport

Located in Las Vegas, United States

ICAO - NV99, IATA -

Data provided by Airmate  

General information

Coordinates: N39°2'12" W114°49'48"
Elevation is 6834 feet MSL.
Magnetic variation is 12° East
View others Airports in Nevada

Operational data

Special qualification required
Current time UTC:
Current local time:
Weather at : KELY - Ely Arpt /Yelland Fld/ ( 29 km )
METAR: KELY 130253Z AUTO 22007KT 10SM CLR 22/M08 A3008 RMK AO2 SLP089 T02221083 53001 $
TAF: KELY 122329Z 1223/1324 VRB06KT P6SM SKC FM130400 17010KT P6SM SKC FM131800 17015G25KT P6SM SKC
View NOTAMs / SUP AIP / TFR affecting this airport [VIEW]
Communications frequencies: [VIEW]

Runways:

RWY identifierQFULength (ft)Width (ft)SurfaceLDA (ft)
02230030OTHER
20230030OTHER

Airport contact information

Address: Las Vegas United States

Satellite view of NV99